Regional Weather Roundup
Issued by NWS

Home | Current Version | Previous Version | Text Only | Print | Product List | Glossary Off
Versions: 1 2 3 4 5 6 7 8 9 10 11 12 13 14 15 16 17 18 19 20 21 22 23 24 25 26 27 28 29 30 31 32 33 34 35 36 37 38 39 40 41 42 43 44 45 46 47 48 49 50

000
ASUS43 KIND 050859
RWRIN

WEATHER ROUNDUP FOR INDIANA
NATIONAL WEATHER SERVICE INDIANAPOLIS IN
500 AM EDT SUN JUL 05 2015

NOTE: "FAIR" INDICATES FEW OR NO CLOUDS BELOW 12,000 FEET WITH NO
SIGNIFICANT WEATHER AND/OR OBSTRUCTIONS TO VISIBILITY.

* - STATION DOES NOT REPORT WEATHER SUCH AS PRECIPITATION OR FOG.

+ - STATION NOT QUALITY CONTROLLED BY THE NATIONAL WEATHER SERVICE.
    USE DATA WITH CAUTION...ESPECIALLY DEWPOINT AND RELATIVE
    HUMIDITY OBSERVATIONS.

INZ001>003-010>013-019-020-051000-
NORTHWEST INDIANA

CITY           SKY/WX    TMP DP  RH WIND       PRES   REMARKS
RENSSELAER +   CLEAR     63  61  94 CALM      30.08R

$$

LMZ046-743>745-051000-
SOUTHERN LAKE MICHIGAN

STATION/POSITION TIME  TEMP    WIND        PRES    WAVE
                       AIR SEA DIR/SP/G            HT
                 (UTC) (F)     (DEG/KT/KT) (MB)    (FT)
BURNS HARBOR     0800   68     190/  7/  9 1018.6R
MICHIGAN CITY    0800   69     150/  8/ 11   N/A
5NW MICH CITY    0800   65 64  190/  4/  4   N/A     0

$$

INZ004-005-014>016-021>024-051000-
NORTH CENTRAL INDIANA

CITY           SKY/WX    TMP DP  RH WIND       PRES   REMARKS
GOSHEN         FOG       58  57  97 CALM      30.08S VSB 3/4
SOUTH BEND     CLEAR     60  57  89 CALM      30.09S FOG

$$

INZ006>009-017-018-025>027-051000-
NORTHEAST INDIANA

CITY           SKY/WX    TMP DP  RH WIND       PRES   REMARKS
ANGOLA *+        N/A     57  57 100 CALM      30.09S VSB 1
FORT WAYNE     CLEAR     60  59  96 CALM      30.09R

$$

INZ028-029-035-036-043>045-051>053-051000-
WEST CENTRAL INDIANA

CITY           SKY/WX    TMP DP  RH WIND       PRES   REMARKS
CRAWFORDSVL +  PTCLDY    56  55  98 CALM      30.07R FOG
GREENCASTLE +  MOCLDY    63  55  77 CALM      30.07R
LAFAYETTE      CLEAR     60  59  96 CALM      30.06R FOG
TERRE HAUTE    PTCLDY    63  62  97 CALM      30.05R FOG

$$

INZ030>032-037>040-046>048-054>057-064-065-051000-
CENTRAL INDIANA

CITY           SKY/WX    TMP DP  RH WIND       PRES   REMARKS
GREENWOOD *+   MOCLDY    63  59  88 CALM      30.06S
INDIANAPOLIS   MOCLDY    66  58  75 N3        30.04S HAZE
-EAGLE CREEK   PTCLDY    63  59  87 CALM      30.06R FOG
KOKOMO *+      CLEAR     61  55  82 CALM      30.07R
MT COMFORT *+  MOCLDY    59 N/A N/A CALM      30.07R
SHELBYVILLE    MOCLDY    63  60  90 CALM      30.05S FOG

$$

INZ033-034-041-042-049-050-058-059-051000-
EAST CENTRAL INDIANA

CITY           SKY/WX    TMP DP  RH WIND       PRES   REMARKS
MUNCIE         PTCLDY    62  59  90 CALM      30.07S FOG

$$

INZ060-061-067>069-081>083-085>088-051000-
SOUTHWEST INDIANA

CITY           SKY/WX    TMP DP  RH WIND       PRES   REMARKS
EVANSVILLE     CLOUDY    71  68  90 CALM      30.02S SMOKE
HUNTINGBURG *+ CLOUDY    68  64  88 CALM      30.03R

$$

INZ062-063-066-070>080-084-089>092-051000-
SOUTH CENTRAL AND SOUTHEAST INDIANA

CITY           SKY/WX    TMP DP  RH WIND       PRES   REMARKS
BLOOMINGTON    CLOUDY    63  62  97 CALM      30.05S FOG
MADISON *+     CLOUDY    68  63  83 CALM      30.06S
SEYMOUR +      CLOUDY    68  66  94 CALM      30.04R FOG

$$




USA.gov is the U.S. government's official web portal to all federal, state and local government web resources and services.